Location: Auttagershofen
(48.1940°N, 10.0237°E)
Time: 23:14:56
(UTC+00:00)

Cosmos 2278 Rocket - Pass Details

Date: 18 January 2026
Orbit: 839 x 846 km, 71.0° (Epoch: 16 February)

Event Time Altitude Azimuth Distance (km) Brightness Sun altitude
Exits shadow 04:14:18 16° 185° (S) 2,066 4.1 -27.7°
Maximum altitude 04:18:44 57° 111° (ESE) 987 2.7 -26.9°
Drops below altitude 10° 04:24:16 10° 35° (NE) 2,469 5.0 -26.0°
Sets 04:26:45 0° 31° (NNE) 3,410 5.7 -25.6°
